AWC10 ZPPP-ZULS

Flight info

Callsign AWC10
Flight time 3h 19m
Altitude 36100
Route GUL9Z GULOT W146 BUBSU/K0846S1130 W162 UPGED/K0850S1100 L888 NIVUX/K0848S1130 L888 PEXUN/K0841S1100 B213 LXA
Aircraft A21N/M-SDE3FGHIRWY/LB1

Departure

Time 2026-04-21 19:25
Airport Kunming Changshui International Airport (ZPPP)

Arrival

Time 2026-04-21 22:44
Airport Lhasa Gonggar International Airport (ZULS)
Time Latitude Longitude Altitude Speed Heading
2026-04-21 19:01 25.09697 102.93012 6915 ft 0 kts 38°
2026-04-21 19:09 25.09693 102.93009 6915 ft 2 kts 35°
2026-04-21 19:09 25.09681 102.93001 6915 ft 2 kts 31°
2026-04-21 19:09 25.09668 102.92992 6915 ft 2 kts 34°
2026-04-21 19:10 25.09655 102.92982 6915 ft 2 kts 32°
2026-04-21 19:10 25.09643 102.92974 6915 ft 2 kts 33°
2026-04-21 19:10 25.09630 102.92965 6915 ft 2 kts 32°
2026-04-21 19:10 25.09618 102.92956 6915 ft 2 kts 33°
2026-04-21 19:11 25.09613 102.92953 6915 ft 1 kts 34°
2026-04-21 19:11 25.09621 102.92973 6915 ft 3 kts 90°
2026-04-21 19:11 25.09609 102.92995 6915 ft 3 kts 131°
2026-04-21 19:11 25.09603 102.93003 6915 ft 0 kts 129°
2026-04-21 19:14 25.09601 102.93006 6915 ft 1 kts 129°
2026-04-21 19:14 25.09593 102.93017 6915 ft 2 kts 131°
2026-04-21 19:14 25.09580 102.93033 6915 ft 3 kts 130°
2026-04-21 19:14 25.09563 102.93055 6915 ft 4 kts 130°
2026-04-21 19:15 25.09544 102.93082 6915 ft 4 kts 129°
2026-04-21 19:15 25.09521 102.93112 6915 ft 5 kts 128°
2026-04-21 19:15 25.09508 102.93153 6915 ft 6 kts 86°
2026-04-21 19:15 25.09533 102.93203 6915 ft 8 kts 48°
2026-04-21 19:16 25.09584 102.93250 6915 ft 10 kts 34°
2026-04-21 19:16 25.09650 102.93298 6915 ft 12 kts 36°
2026-04-21 19:16 25.09724 102.93362 6915 ft 14 kts 37°
2026-04-21 19:16 25.09805 102.93432 6915 ft 15 kts 39°
2026-04-21 19:17 25.09986 102.93591 6915 ft 17 kts 38°
2026-04-21 19:17 25.10088 102.93678 6915 ft 18 kts 39°
2026-04-21 19:17 25.10192 102.93769 6915 ft 19 kts 39°
2026-04-21 19:18 25.10299 102.93864 6915 ft 20 kts 39°
2026-04-21 19:18 25.10411 102.93962 6915 ft 20 kts 38°
2026-04-21 19:18 25.10526 102.94058 6915 ft 21 kts 38°
2026-04-21 19:18 25.10642 102.94160 6915 ft 21 kts 39°
2026-04-21 19:19 25.10761 102.94260 6915 ft 21 kts 41°
2026-04-21 19:19 25.10878 102.94366 6915 ft 22 kts 38°
2026-04-21 19:19 25.11001 102.94473 6914 ft 22 kts 38°
2026-04-21 19:19 25.11124 102.94579 6914 ft 22 kts 38°
2026-04-21 19:20 25.11248 102.94688 6914 ft 22 kts 38°
2026-04-21 19:20 25.11330 102.94762 6914 ft 10 kts 51°
2026-04-21 19:20 25.11341 102.94819 6914 ft 8 kts 101°
2026-04-21 19:20 25.11304 102.94873 6914 ft 9 kts 152°
2026-04-21 19:21 25.11271 102.94878 6914 ft 0 kts 187°
2026-04-21 19:21 25.11269 102.94878 6914 ft 0 kts 186°
2026-04-21 19:22 25.11264 102.94877 6914 ft 1 kts 187°
2026-04-21 19:22 25.11246 102.94874 6914 ft 3 kts 189°
2026-04-21 19:22 25.11215 102.94867 6914 ft 5 kts 192°
2026-04-21 19:22 25.11173 102.94858 6914 ft 7 kts 191°
2026-04-21 19:23 25.11118 102.94846 6914 ft 8 kts 191°
2026-04-21 19:23 25.11052 102.94828 6914 ft 10 kts 197°
2026-04-21 19:23 25.10977 102.94796 6914 ft 12 kts 204°
2026-04-21 19:23 25.10907 102.94755 6914 ft 0 kts 216°
2026-04-21 19:24 25.10906 102.94754 6914 ft 2 kts 217°
2026-04-21 19:24 25.10751 102.94620 6915 ft 65 kts 218°
2026-04-21 19:24 25.10184 102.94129 6915 ft 136 kts 219°
2026-04-21 19:24 25.09343 102.93419 7328 ft 156 kts 215°
2026-04-21 19:25 25.08454 102.92799 8018 ft 155 kts 219°
2026-04-21 19:25 25.07550 102.92022 8580 ft 173 kts 226°
2026-04-21 19:25 25.06666 102.91040 9165 ft 188 kts 228°
2026-04-21 19:25 25.05618 102.90066 9744 ft 207 kts 224°
2026-04-21 19:26 25.04435 102.89062 10319 ft 225 kts 224°
2026-04-21 19:26 25.03160 102.87978 10883 ft 242 kts 224°
2026-04-21 19:26 25.01794 102.86807 11599 ft 253 kts 224°
2026-04-21 19:26 25.00403 102.85613 12383 ft 258 kts 225°
2026-04-21 19:27 24.98967 102.84373 13147 ft 265 kts 225°
2026-04-21 19:27 24.97513 102.83113 13906 ft 270 kts 225°
2026-04-21 19:27 24.96033 102.81825 14721 ft 273 kts 226°
2026-04-21 19:27 24.94820 102.80264 15508 ft 265 kts 248°
2026-04-21 19:28 24.94315 102.78373 16287 ft 261 kts 267°
2026-04-21 19:28 24.94490 102.76402 17015 ft 264 kts 286°
2026-04-21 19:28 24.95304 102.74586 17743 ft 270 kts 298°
2026-04-21 19:28 24.96294 102.72804 18477 ft 273 kts 298°
2026-04-21 19:29 24.97280 102.71029 19203 ft 275 kts 297°
2026-04-21 19:29 24.98284 102.69227 19948 ft 277 kts 298°
2026-04-21 19:29 24.99293 102.67419 20667 ft 279 kts 297°
2026-04-21 19:29 25.00306 102.65610 21364 ft 281 kts 297°
2026-04-21 19:30 25.01328 102.63785 22036 ft 283 kts 297°
2026-04-21 19:30 25.02374 102.61926 22719 ft 286 kts 298°
2026-04-21 19:30 25.03466 102.60047 23132 ft 298 kts 298°
2026-04-21 19:30 25.04616 102.58080 23412 ft 314 kts 298°
2026-04-21 19:31 25.05830 102.55987 23695 ft 328 kts 296°
2026-04-21 19:31 25.06677 102.53640 23952 ft 337 kts 281°
2026-04-21 19:31 25.06858 102.51038 24193 ft 350 kts 267°
2026-04-21 19:31 25.06300 102.48346 24432 ft 366 kts 252°
2026-04-21 19:32 25.05140 102.45779 24682 ft 380 kts 246°
2026-04-21 19:32 25.03907 102.43150 24893 ft 392 kts 246°
2026-04-21 19:32 25.02645 102.40464 25095 ft 403 kts 246°
2026-04-21 19:32 25.01343 102.37704 25391 ft 411 kts 246°
2026-04-21 19:33 25.00450 102.35819 25705 ft 413 kts 246°
2026-04-21 19:33 24.98664 102.32067 26393 ft 416 kts 246°
2026-04-21 19:33 24.97301 102.29207 26860 ft 418 kts 246°
2026-04-21 19:33 24.95952 102.26374 27301 ft 421 kts 246°
2026-04-21 19:34 24.94584 102.23508 27763 ft 423 kts 246°
2026-04-21 19:34 24.93216 102.20645 28412 ft 420 kts 246°
2026-04-21 19:34 24.91841 102.17775 29100 ft 416 kts 246°
2026-04-21 19:34 24.90497 102.14965 29755 ft 413 kts 246°
2026-04-21 19:35 24.89178 102.12212 30346 ft 411 kts 246°
2026-04-21 19:35 24.86523 102.06667 31567 ft 404 kts 246°
2026-04-21 19:35 24.85213 102.03935 32133 ft 402 kts 247°
2026-04-21 19:36 24.83908 102.01214 32670 ft 400 kts 247°
2026-04-21 19:36 24.82615 101.98518 33254 ft 398 kts 248°
2026-04-21 19:36 24.81328 101.95836 33833 ft 396 kts 247°
2026-04-21 19:36 24.80055 101.93179 34440 ft 392 kts 247°
2026-04-21 19:37 24.78777 101.90524 34961 ft 391 kts 248°
2026-04-21 19:37 24.77500 101.87862 35315 ft 392 kts 248°
2026-04-21 19:37 24.76212 101.85179 35629 ft 394 kts 248°
2026-04-21 19:37 24.74924 101.82507 35923 ft 396 kts 248°
2026-04-21 19:38 24.73621 101.79795 36191 ft 397 kts 247°
2026-04-21 19:38 24.71464 101.75320 36209 ft 398 kts 247°
2026-04-21 19:39 24.68417 101.69011 36203 ft 399 kts 247°
2026-04-21 19:39 24.66040 101.63532 36189 ft 395 kts 254°
2026-04-21 19:40 24.64706 101.57682 36176 ft 391 kts 264°
2026-04-21 19:40 24.64501 101.51753 36167 ft 390 kts 274°
2026-04-21 19:41 24.65418 101.45858 36166 ft 390 kts 284°
2026-04-21 19:41 24.66972 101.40145 36185 ft 391 kts 285°
2026-04-21 19:42 24.68573 101.34412 36206 ft 391 kts 285°
2026-04-21 19:42 24.70179 101.28691 36222 ft 390 kts 285°
2026-04-21 19:43 24.71774 101.23012 36234 ft 390 kts 285°
2026-04-21 19:43 24.73381 101.17292 36229 ft 390 kts 285°
2026-04-21 19:44 24.74981 101.11581 36216 ft 390 kts 285°
2026-04-21 19:44 24.76574 101.05890 36204 ft 390 kts 285°
2026-04-21 19:45 24.78174 101.00168 36193 ft 391 kts 285°
2026-04-21 19:45 24.79766 100.94454 36191 ft 390 kts 285°
2026-04-21 19:46 24.81357 100.88749 36201 ft 389 kts 285°
2026-04-21 19:46 24.82934 100.83088 36205 ft 390 kts 284°
2026-04-21 19:47 24.84520 100.77378 36215 ft 389 kts 284°
2026-04-21 19:47 24.86090 100.71709 36218 ft 389 kts 284°
2026-04-21 19:48 24.87665 100.66014 36217 ft 388 kts 284°
2026-04-21 19:48 24.89236 100.60323 36217 ft 388 kts 285°
2026-04-21 19:49 24.90794 100.54678 36210 ft 388 kts 285°
2026-04-21 19:49 24.92356 100.49011 36202 ft 388 kts 284°
2026-04-21 19:50 24.93662 100.44247 36196 ft 388 kts 285°
2026-04-21 19:50 24.95467 100.37666 36195 ft 386 kts 284°
2026-04-21 19:51 24.97704 100.32224 36196 ft 394 kts 300°
2026-04-21 19:51 25.01685 100.27953 36206 ft 413 kts 318°
2026-04-21 19:51 25.04291 100.26430 36209 ft 424 kts 328°
2026-04-21 19:52 25.07163 100.25494 36208 ft 438 kts 339°
2026-04-21 19:52 25.13294 100.24599 36211 ft 444 kts 343°
2026-04-21 19:53 25.19445 100.23719 36206 ft 440 kts 340°
2026-04-21 19:53 25.25363 100.22228 36209 ft 433 kts 335°
2026-04-21 19:54 25.31165 100.20519 36210 ft 434 kts 335°
2026-04-21 19:54 25.37015 100.18779 36214 ft 433 kts 335°
2026-04-21 19:55 25.42849 100.17047 36216 ft 432 kts 335°
2026-04-21 19:55 25.48645 100.15328 36224 ft 433 kts 335°
2026-04-21 19:56 25.54505 100.13586 36236 ft 434 kts 335°
2026-04-21 19:56 25.60308 100.11862 36259 ft 433 kts 335°
2026-04-21 19:57 25.66151 100.10123 36280 ft 433 kts 335°
2026-04-21 19:57 25.71944 100.08396 36308 ft 434 kts 335°
2026-04-21 19:58 25.77807 100.06647 36322 ft 434 kts 335°
2026-04-21 19:58 25.83603 100.04916 36323 ft 433 kts 335°
2026-04-21 19:59 25.89431 100.03174 36341 ft 433 kts 334°
2026-04-21 19:59 25.95288 100.01508 36354 ft 436 kts 337°
2026-04-21 20:00 26.01389 100.00407 36366 ft 445 kts 343°
2026-04-21 20:00 26.07690 100.00005 36373 ft 455 kts 348°
2026-04-21 20:01 26.14033 100.00025 36358 ft 454 kts 349°
2026-04-21 20:01 26.20429 100.00025 36344 ft 453 kts 348°
2026-04-21 20:02 26.26782 100.00021 36329 ft 454 kts 349°
2026-04-21 20:02 26.33112 100.00015 36337 ft 454 kts 349°
2026-04-21 20:03 26.39400 100.00016 36369 ft 452 kts 348°
2026-04-21 20:03 26.45730 100.00011 36395 ft 453 kts 348°
2026-04-21 20:04 26.52030 100.00007 36415 ft 453 kts 348°
2026-04-21 20:04 26.58376 100.00005 36412 ft 453 kts 348°
2026-04-21 20:05 26.64673 100.00003 36398 ft 452 kts 348°
2026-04-21 20:05 26.71007 100.00007 36380 ft 453 kts 348°
2026-04-21 20:06 26.77313 100.00007 36367 ft 454 kts 348°
2026-04-21 20:06 26.83665 100.00003 36362 ft 455 kts 348°
2026-04-21 20:07 26.89969 100.00003 36366 ft 454 kts 348°
2026-04-21 20:07 26.96277 100.00005 36372 ft 454 kts 348°
2026-04-21 20:08 27.02622 100.00007 36367 ft 454 kts 348°
2026-04-21 20:08 27.08957 100.00006 36405 ft 454 kts 348°
2026-04-21 20:09 27.15280 100.00005 36426 ft 453 kts 348°
2026-04-21 20:09 27.21594 100.00005 36432 ft 452 kts 348°
2026-04-21 20:10 27.27887 100.00003 36444 ft 452 kts 347°
2026-04-21 20:10 27.34202 100.00003 36468 ft 453 kts 348°
2026-04-21 20:11 27.40518 100.00003 36496 ft 453 kts 347°
2026-04-21 20:11 27.46828 100.00005 36518 ft 453 kts 347°
2026-04-21 20:12 27.53128 100.00008 36538 ft 451 kts 347°
2026-04-21 20:12 27.59422 100.00008 36537 ft 452 kts 347°
2026-04-21 20:13 27.65706 100.00006 36542 ft 452 kts 347°
2026-04-21 20:13 27.71988 100.00007 36560 ft 449 kts 347°
2026-04-21 20:14 27.78263 100.00007 36556 ft 451 kts 347°
2026-04-21 20:14 27.84531 100.00004 36555 ft 449 kts 347°
2026-04-21 20:15 27.90800 100.00004 36566 ft 449 kts 347°
2026-04-21 20:15 27.97094 100.00025 36581 ft 450 kts 347°
2026-04-21 20:16 28.03350 100.00030 36578 ft 450 kts 347°
2026-04-21 20:16 28.09653 100.00011 36589 ft 449 kts 347°
2026-04-21 20:17 28.15966 100.00020 36578 ft 450 kts 347°
2026-04-21 20:17 28.22232 100.00009 36574 ft 449 kts 347°
2026-04-21 20:18 28.27445 100.00020 36589 ft 450 kts 347°
2026-04-21 20:18 28.34732 100.00002 36592 ft 451 kts 347°
2026-04-21 20:19 28.41048 100.00013 36590 ft 451 kts 347°
2026-04-21 20:19 28.47310 100.00017 36571 ft 451 kts 348°
2026-04-21 20:20 28.53592 100.00005 36574 ft 450 kts 348°
2026-04-21 20:20 28.59861 100.00020 36577 ft 451 kts 348°
2026-04-21 20:21 28.66118 100.00002 36603 ft 450 kts 347°
2026-04-21 20:21 28.72430 100.00009 36627 ft 452 kts 347°
2026-04-21 20:22 28.78705 100.00012 36646 ft 451 kts 348°
2026-04-21 20:22 28.88130 100.00017 36640 ft 451 kts 348°
2026-04-21 20:23 28.94430 100.00004 36628 ft 450 kts 347°
2026-04-21 20:23 29.00700 100.00015 36622 ft 449 kts 348°
2026-04-21 20:24 29.06962 100.00002 36605 ft 452 kts 348°
2026-04-21 20:24 29.13271 100.00011 36612 ft 452 kts 348°
2026-04-21 20:25 29.19591 100.00008 36623 ft 452 kts 348°
2026-04-21 20:25 29.25923 100.00002 36631 ft 454 kts 348°
2026-04-21 20:26 29.32254 100.00006 36635 ft 453 kts 348°
2026-04-21 20:26 29.38593 100.00008 36634 ft 456 kts 348°
2026-04-21 20:27 29.44910 100.00004 36633 ft 455 kts 349°
2026-04-21 20:27 29.51242 100.00008 36641 ft 454 kts 349°
2026-04-21 20:28 29.57588 100.00011 36640 ft 455 kts 348°
2026-04-21 20:28 29.63952 100.00002 36655 ft 456 kts 349°
2026-04-21 20:29 29.70291 100.00010 36658 ft 455 kts 349°
2026-04-21 20:29 29.76637 100.00004 36674 ft 457 kts 349°
2026-04-21 20:30 29.82997 100.00008 36682 ft 456 kts 349°
2026-04-21 20:30 29.89372 100.00005 36687 ft 457 kts 349°
2026-04-21 20:31 29.95703 100.00006 36691 ft 455 kts 349°
2026-04-21 20:31 30.02061 100.00005 36689 ft 454 kts 349°
2026-04-21 20:32 30.08428 100.00004 36687 ft 458 kts 349°
2026-04-21 20:32 30.14813 100.00007 36683 ft 458 kts 349°
2026-04-21 20:33 30.21198 100.00003 36671 ft 458 kts 349°
2026-04-21 20:33 30.27577 100.00002 36666 ft 458 kts 349°
2026-04-21 20:34 30.34001 100.00002 36671 ft 461 kts 349°
2026-04-21 20:34 30.40412 100.00015 36674 ft 460 kts 349°
2026-04-21 20:35 30.46861 100.00015 36685 ft 461 kts 350°
2026-04-21 20:35 30.53234 100.00013 36688 ft 462 kts 350°
2026-04-21 20:36 30.59696 100.00016 36679 ft 460 kts 350°
2026-04-21 20:36 30.66122 100.00015 36668 ft 462 kts 350°
2026-04-21 20:37 30.72588 100.00014 36657 ft 462 kts 350°
2026-04-21 20:37 30.79034 100.00016 36663 ft 463 kts 350°
2026-04-21 20:38 30.85240 99.99120 36653 ft 438 kts 330°
2026-04-21 20:38 30.87938 99.97558 36659 ft 424 kts 317°
2026-04-21 20:38 30.90189 99.95405 36669 ft 413 kts 306°
2026-04-21 20:39 30.91926 99.92846 36670 ft 401 kts 295°
2026-04-21 20:39 30.93160 99.89954 36672 ft 393 kts 285°
2026-04-21 20:39 30.94142 99.83781 36679 ft 385 kts 273°
2026-04-21 20:40 30.94654 99.77608 36663 ft 387 kts 272°
2026-04-21 20:40 30.95151 99.71339 36653 ft 386 kts 272°
2026-04-21 20:41 30.95641 99.65089 36655 ft 387 kts 272°
2026-04-21 20:41 30.96122 99.58881 36651 ft 386 kts 272°
2026-04-21 20:42 30.96599 99.52696 36656 ft 387 kts 272°
2026-04-21 20:42 30.97078 99.46442 36653 ft 387 kts 272°
2026-04-21 20:43 30.97548 99.40205 36637 ft 388 kts 272°
2026-04-21 20:43 30.98015 99.33968 36622 ft 386 kts 271°
2026-04-21 20:44 30.98478 99.27766 36634 ft 388 kts 271°
2026-04-21 20:44 30.98943 99.21497 36637 ft 386 kts 272°
2026-04-21 20:45 30.99403 99.15292 36622 ft 385 kts 272°
2026-04-21 20:45 30.99858 99.09110 36600 ft 386 kts 271°
2026-04-21 20:46 31.00312 99.02890 36600 ft 385 kts 271°
2026-04-21 20:46 31.00760 98.96654 36605 ft 386 kts 272°
2026-04-21 20:47 31.01209 98.90414 36595 ft 386 kts 271°
2026-04-21 20:47 31.01650 98.84200 36628 ft 386 kts 272°
2026-04-21 20:48 31.02093 98.77950 36645 ft 385 kts 271°
2026-04-21 20:48 31.02527 98.71751 36648 ft 386 kts 271°
2026-04-21 20:49 31.02962 98.65514 36656 ft 386 kts 272°
2026-04-21 20:49 31.03485 98.59263 36640 ft 387 kts 272°
2026-04-21 20:50 31.04012 98.53031 36636 ft 386 kts 272°
2026-04-21 20:50 31.04527 98.46832 36661 ft 388 kts 272°
2026-04-21 20:51 31.05049 98.40507 36654 ft 388 kts 272°
2026-04-21 20:51 31.05555 98.34277 36661 ft 388 kts 271°
2026-04-21 20:52 31.06065 98.28017 36653 ft 386 kts 272°
2026-04-21 20:52 31.06566 98.21821 36664 ft 386 kts 272°
2026-04-21 20:53 31.07067 98.15579 36656 ft 387 kts 272°
2026-04-21 20:53 31.07563 98.09366 36670 ft 387 kts 272°
2026-04-21 20:54 31.08074 98.03135 36683 ft 387 kts 271°
2026-04-21 20:54 31.08573 97.96860 36694 ft 387 kts 272°
2026-04-21 20:55 31.09073 97.90621 36697 ft 388 kts 272°
2026-04-21 20:55 31.09573 97.84339 36707 ft 388 kts 272°
2026-04-21 20:56 31.10068 97.78095 36693 ft 388 kts 272°
2026-04-21 20:56 31.10560 97.71807 36691 ft 389 kts 271°
2026-04-21 20:57 31.11048 97.65523 36694 ft 389 kts 272°
2026-04-21 20:57 31.11536 97.59229 36686 ft 390 kts 271°
2026-04-21 20:58 31.12018 97.52917 36684 ft 390 kts 272°
2026-04-21 20:58 31.12499 97.46622 36681 ft 391 kts 272°
2026-04-21 20:59 31.12979 97.40334 36676 ft 392 kts 272°
2026-04-21 20:59 31.13450 97.34026 36670 ft 391 kts 272°
2026-04-21 21:00 31.13912 97.27693 36679 ft 392 kts 270°
2026-04-21 21:00 31.13998 97.21352 36695 ft 388 kts 266°
2026-04-21 21:01 31.13594 97.15104 36689 ft 387 kts 261°
2026-04-21 21:01 31.12698 97.08881 36692 ft 387 kts 257°
2026-04-21 21:02 31.11442 97.02795 36690 ft 388 kts 255°
2026-04-21 21:02 31.10148 96.96697 36690 ft 387 kts 256°
2026-04-21 21:03 31.08849 96.90610 36703 ft 387 kts 256°
2026-04-21 21:03 31.07532 96.84476 36729 ft 388 kts 255°
2026-04-21 21:04 31.06222 96.78403 36720 ft 388 kts 256°
2026-04-21 21:04 31.04894 96.72270 36735 ft 389 kts 256°
2026-04-21 21:05 31.03567 96.66156 36745 ft 389 kts 256°
2026-04-21 21:05 31.02241 96.60050 36741 ft 389 kts 255°
2026-04-21 21:06 31.00901 96.53915 36749 ft 390 kts 255°
2026-04-21 21:06 30.99563 96.47781 36745 ft 389 kts 256°
2026-04-21 21:07 30.98231 96.41694 36744 ft 390 kts 255°
2026-04-21 21:07 30.96923 96.35529 36740 ft 391 kts 256°
2026-04-21 21:08 30.95629 96.29393 36740 ft 391 kts 256°
2026-04-21 21:08 30.94330 96.23263 36743 ft 392 kts 256°
2026-04-21 21:09 30.93023 96.17091 36748 ft 391 kts 256°
2026-04-21 21:09 30.91716 96.10943 36752 ft 392 kts 255°
2026-04-21 21:10 30.90407 96.04829 36754 ft 392 kts 256°
2026-04-21 21:10 30.89090 95.98673 36753 ft 392 kts 255°
2026-04-21 21:11 30.87756 95.92468 36751 ft 392 kts 255°
2026-04-21 21:11 30.86431 95.86311 36733 ft 392 kts 256°
2026-04-21 21:12 30.85101 95.80136 36717 ft 392 kts 255°
2026-04-21 21:12 30.83764 95.73959 36726 ft 392 kts 255°
2026-04-21 21:13 30.82475 95.67790 36718 ft 393 kts 256°
2026-04-21 21:13 30.81199 95.61567 36711 ft 393 kts 256°
2026-04-21 21:14 30.79918 95.55360 36704 ft 394 kts 256°
2026-04-21 21:14 30.78641 95.49181 36709 ft 393 kts 256°
2026-04-21 21:15 30.77355 95.42993 36705 ft 394 kts 256°
2026-04-21 21:15 30.76059 95.36781 36711 ft 394 kts 257°
2026-04-21 21:16 30.74768 95.30602 36724 ft 393 kts 256°
2026-04-21 21:16 30.73485 95.24461 36719 ft 392 kts 256°
2026-04-21 21:17 30.72185 95.18263 36721 ft 392 kts 256°
2026-04-21 21:17 30.70888 95.12105 36728 ft 393 kts 255°
2026-04-21 21:18 30.69577 95.05891 36712 ft 394 kts 256°
2026-04-21 21:18 30.68266 94.99710 36731 ft 394 kts 255°
2026-04-21 21:19 30.66955 94.93533 36734 ft 395 kts 256°
2026-04-21 21:19 30.65648 94.87366 36733 ft 393 kts 256°
2026-04-21 21:20 30.64330 94.81188 36744 ft 393 kts 256°
2026-04-21 21:20 30.63006 94.74988 36764 ft 394 kts 256°
2026-04-21 21:21 30.61685 94.68807 36766 ft 393 kts 256°
2026-04-21 21:21 30.60365 94.62663 36765 ft 392 kts 256°
2026-04-21 21:22 30.59037 94.56492 36750 ft 394 kts 256°
2026-04-21 21:22 30.57699 94.50277 36728 ft 393 kts 256°
2026-04-21 21:23 30.56362 94.44098 36737 ft 393 kts 256°
2026-04-21 21:23 30.55029 94.37951 36765 ft 393 kts 256°
2026-04-21 21:24 30.53698 94.31818 36788 ft 392 kts 256°
2026-04-21 21:24 30.52360 94.25674 36842 ft 392 kts 256°
2026-04-21 21:25 30.51018 94.19533 36848 ft 392 kts 255°
2026-04-21 21:25 30.49732 94.13347 36799 ft 392 kts 256°
2026-04-21 21:26 30.48456 94.07172 36776 ft 394 kts 256°
2026-04-21 21:26 30.47172 94.01000 36765 ft 393 kts 256°
2026-04-21 21:27 30.45886 93.94845 36769 ft 393 kts 256°
2026-04-21 21:27 30.44595 93.88655 36760 ft 392 kts 256°
2026-04-21 21:28 30.43302 93.82487 36789 ft 393 kts 256°
2026-04-21 21:29 30.41360 93.73265 36831 ft 392 kts 256°
2026-04-21 21:29 30.40053 93.67079 36842 ft 393 kts 256°
2026-04-21 21:30 30.38536 93.61016 36843 ft 393 kts 251°
2026-04-21 21:30 30.36515 93.55072 36852 ft 393 kts 247°
2026-04-21 21:31 30.34215 93.49342 36856 ft 393 kts 246°
2026-04-21 21:31 30.31889 93.43591 36865 ft 394 kts 246°
2026-04-21 21:32 30.29547 93.37820 36844 ft 394 kts 247°
2026-04-21 21:32 30.27206 93.32059 36839 ft 394 kts 246°
2026-04-21 21:33 30.24863 93.26311 36820 ft 395 kts 246°
2026-04-21 21:33 30.22534 93.20594 36816 ft 393 kts 246°
2026-04-21 21:34 30.20176 93.14832 36637 ft 394 kts 246°
2026-04-21 21:34 30.19004 93.11970 36758 ft 395 kts 246°
2026-04-21 21:34 30.17829 93.09094 36822 ft 394 kts 246°
2026-04-21 21:35 30.15484 93.03383 36856 ft 394 kts 246°
2026-04-21 21:35 30.13122 92.97628 36819 ft 394 kts 246°
2026-04-21 21:36 30.10771 92.91914 36828 ft 394 kts 246°
2026-04-21 21:36 30.08402 92.86170 36830 ft 395 kts 246°
2026-04-21 21:37 30.06043 92.80455 36784 ft 394 kts 246°
2026-04-21 21:37 30.04854 92.77573 36932 ft 394 kts 246°
2026-04-21 21:37 30.03669 92.74708 36705 ft 392 kts 246°
2026-04-21 21:37 30.02505 92.71894 36865 ft 393 kts 246°
2026-04-21 21:38 30.01319 92.69035 36847 ft 393 kts 246°
2026-04-21 21:38 29.98978 92.63377 36825 ft 393 kts 246°
2026-04-21 21:39 29.96616 92.57689 36822 ft 395 kts 246°
2026-04-21 21:39 29.94222 92.51929 36825 ft 395 kts 246°
2026-04-21 21:40 29.91850 92.46241 36821 ft 395 kts 246°
2026-04-21 21:40 29.89472 92.40541 36818 ft 394 kts 246°
2026-04-21 21:41 29.87096 92.34845 36817 ft 395 kts 246°
2026-04-21 21:41 29.84711 92.29150 36816 ft 393 kts 245°
2026-04-21 21:42 29.82333 92.23473 36821 ft 394 kts 245°
2026-04-21 21:42 29.79948 92.17789 36815 ft 392 kts 245°
2026-04-21 21:43 29.77559 92.12102 36813 ft 393 kts 246°
2026-04-21 21:43 29.75175 92.06435 36812 ft 394 kts 246°
2026-04-21 21:44 29.72765 92.00716 36808 ft 394 kts 245°
2026-04-21 21:44 29.70360 91.95019 36808 ft 393 kts 245°
2026-04-21 21:45 29.67970 91.89365 36813 ft 395 kts 245°
2026-04-21 21:45 29.65557 91.83668 36815 ft 395 kts 245°
2026-04-21 21:46 29.63138 91.77966 36814 ft 396 kts 245°
2026-04-21 21:46 29.60720 91.72271 36812 ft 395 kts 246°
2026-04-21 21:46 29.59507 91.69419 36669 ft 395 kts 246°
2026-04-21 21:47 29.58307 91.66596 36421 ft 395 kts 245°
2026-04-21 21:47 29.57089 91.63730 36170 ft 395 kts 246°
2026-04-21 21:47 29.55875 91.60883 35906 ft 395 kts 245°
2026-04-21 21:47 29.54674 91.58061 35392 ft 397 kts 245°
2026-04-21 21:48 29.53467 91.55223 34689 ft 398 kts 245°
2026-04-21 21:48 29.52244 91.52361 33959 ft 399 kts 245°
2026-04-21 21:48 29.51019 91.49490 33176 ft 402 kts 244°
2026-04-21 21:48 29.49800 91.46639 32374 ft 405 kts 244°
2026-04-21 21:49 29.48547 91.43716 31532 ft 408 kts 244°
2026-04-21 21:49 29.47305 91.40820 30889 ft 404 kts 244°
2026-04-21 21:49 29.46061 91.37920 30462 ft 395 kts 244°
2026-04-21 21:49 29.44869 91.35139 30147 ft 384 kts 244°
2026-04-21 21:50 29.43698 91.32412 29908 ft 373 kts 244°
2026-04-21 21:50 29.42578 91.29803 29602 ft 363 kts 244°
2026-04-21 21:50 29.41481 91.27248 29420 ft 351 kts 244°
2026-04-21 21:50 29.40408 91.24751 29178 ft 342 kts 244°
2026-04-21 21:51 29.39377 91.22351 28995 ft 331 kts 244°
2026-04-21 21:51 29.38375 91.20019 28829 ft 320 kts 244°
2026-04-21 21:51 29.37405 91.17770 28652 ft 310 kts 244°
2026-04-21 21:51 29.36469 91.15596 28520 ft 298 kts 244°
2026-04-21 21:52 29.35553 91.13470 28417 ft 291 kts 244°
2026-04-21 21:52 29.34662 91.11400 28308 ft 291 kts 244°
2026-04-21 21:52 29.33770 91.09335 28189 ft 291 kts 244°
2026-04-21 21:52 29.32872 91.07257 28072 ft 288 kts 244°
2026-04-21 21:53 29.31984 91.05203 27902 ft 282 kts 245°
2026-04-21 21:53 29.31009 91.03227 27762 ft 289 kts 231°
2026-04-21 21:53 29.29390 91.01862 27596 ft 296 kts 204°
2026-04-21 21:53 29.27311 91.01485 27235 ft 305 kts 177°
2026-04-21 21:54 29.25284 91.02272 26828 ft 312 kts 148°
2026-04-21 21:54 29.23797 91.04076 26426 ft 317 kts 119°
2026-04-21 21:54 29.23227 91.06471 26037 ft 317 kts 89°
2026-04-21 21:54 29.23720 91.08900 25664 ft 310 kts 59°
2026-04-21 21:55 29.25077 91.10805 25315 ft 304 kts 42°
2026-04-21 21:55 29.26431 91.12637 24930 ft 306 kts 59°
2026-04-21 21:55 29.27014 91.14967 24538 ft 307 kts 90°
2026-04-21 21:55 29.26751 91.17358 24204 ft 305 kts 99°
2026-04-21 21:56 29.26359 91.19757 23864 ft 302 kts 100°
2026-04-21 21:56 29.25958 91.22121 23546 ft 300 kts 100°
2026-04-21 21:56 29.25563 91.24455 23222 ft 298 kts 99°
2026-04-21 21:56 29.25173 91.26765 22906 ft 295 kts 99°
2026-04-21 21:57 29.24789 91.29060 22591 ft 293 kts 99°
2026-04-21 21:57 29.24402 91.31370 22265 ft 291 kts 99°
2026-04-21 21:57 29.24024 91.33614 21948 ft 288 kts 99°
2026-04-21 21:57 29.23643 91.35878 21626 ft 286 kts 99°
2026-04-21 21:58 29.23311 91.38107 21278 ft 283 kts 91°
2026-04-21 21:58 29.23683 91.40243 20882 ft 275 kts 57°
2026-04-21 21:58 29.24958 91.41809 20525 ft 265 kts 28°
2026-04-21 21:58 29.26664 91.42470 20205 ft 258 kts
2026-04-21 21:59 29.28411 91.42181 19879 ft 255 kts 337°
2026-04-21 21:59 29.29855 91.41029 19543 ft 255 kts 311°
2026-04-21 21:59 29.30697 91.39251 19196 ft 259 kts 286°
2026-04-21 21:59 29.30890 91.37197 18929 ft 258 kts 272°
2026-04-21 22:00 29.30874 91.35160 18860 ft 254 kts 271°
2026-04-21 22:00 29.30849 91.33142 18863 ft 252 kts 271°
2026-04-21 22:00 29.30817 91.31119 18863 ft 251 kts 271°
2026-04-21 22:00 29.30783 91.29127 18865 ft 251 kts 271°
2026-04-21 22:01 29.30746 91.27163 18858 ft 243 kts 271°
2026-04-21 22:01 29.30709 91.25212 18852 ft 240 kts 271°
2026-04-21 22:01 29.30674 91.23298 18841 ft 240 kts 271°
2026-04-21 22:01 29.30638 91.21387 18838 ft 239 kts 271°
2026-04-21 22:02 29.30604 91.19479 18841 ft 240 kts 271°
2026-04-21 22:02 29.30570 91.17565 18840 ft 240 kts 271°
2026-04-21 22:02 29.30536 91.15653 18841 ft 240 kts 271°
2026-04-21 22:02 29.30503 91.13728 18841 ft 240 kts 271°
2026-04-21 22:03 29.30470 91.11811 18837 ft 239 kts 271°
2026-04-21 22:03 29.30439 91.09898 18836 ft 239 kts 271°
2026-04-21 22:03 29.30408 91.08019 18805 ft 237 kts 272°
2026-04-21 22:03 29.30381 91.06114 18555 ft 238 kts 272°
2026-04-21 22:04 29.30352 91.04242 18127 ft 234 kts 272°
2026-04-21 22:04 29.30322 91.02410 17599 ft 230 kts 271°
2026-04-21 22:04 29.30292 91.00577 17014 ft 229 kts 271°
2026-04-21 22:04 29.30263 90.98766 16436 ft 228 kts 271°
2026-04-21 22:05 29.30234 90.96939 15857 ft 228 kts 271°
2026-04-21 22:05 29.30207 90.95145 15288 ft 227 kts 271°
2026-04-21 22:05 29.30179 90.93349 14725 ft 226 kts 271°
2026-04-21 22:05 29.30154 90.91471 14494 ft 256 kts 270°
2026-04-21 22:06 29.30117 90.89384 15010 ft 269 kts 270°
2026-04-21 22:06 29.30072 90.87153 15652 ft 290 kts 270°
2026-04-21 22:06 29.30023 90.84865 16977 ft 289 kts 270°
2026-04-21 22:06 29.29983 90.82628 18377 ft 281 kts 273°
2026-04-21 22:07 29.30312 90.80444 19393 ft 284 kts 291°
2026-04-21 22:07 29.31262 90.78432 20146 ft 297 kts 308°
2026-04-21 22:07 29.32824 90.76769 20674 ft 304 kts 327°
2026-04-21 22:07 29.34667 90.75819 20940 ft 279 kts 345°
2026-04-21 22:08 29.36520 90.75565 20988 ft 264 kts
2026-04-21 22:08 29.38323 90.75927 21005 ft 261 kts 17°
2026-04-21 22:08 29.39960 90.76851 21039 ft 267 kts 33°
2026-04-21 22:08 29.41351 90.78346 21414 ft 278 kts 50°
2026-04-21 22:09 29.42309 90.80267 22209 ft 283 kts 67°
2026-04-21 22:09 29.42746 90.82454 23002 ft 288 kts 85°
2026-04-21 22:09 29.42578 90.84776 23704 ft 296 kts 104°
2026-04-21 22:09 29.41769 90.86939 24402 ft 301 kts 124°
2026-04-21 22:10 29.40395 90.88748 25157 ft 303 kts 139°
2026-04-21 22:10 29.38827 90.90360 25903 ft 306 kts 141°
2026-04-21 22:10 29.37197 90.91991 26659 ft 309 kts 141°
2026-04-21 22:10 29.35589 90.93630 27394 ft 312 kts 141°
2026-04-21 22:11 29.33975 90.95303 28081 ft 316 kts 141°
2026-04-21 22:11 29.32338 90.97021 28767 ft 319 kts 139°
2026-04-21 22:11 29.30830 90.98911 29429 ft 324 kts 136°
2026-04-21 22:11 29.29098 91.00499 30028 ft 320 kts 155°
2026-04-21 22:12 29.27296 91.01962 31037 ft 314 kts 136°
2026-04-21 22:12 29.26162 91.04061 31898 ft 315 kts 114°
2026-04-21 22:12 29.25715 91.06583 31998 ft 338 kts 90°
2026-04-21 22:12 29.26152 91.09282 32028 ft 352 kts 67°
2026-04-21 22:13 29.27445 91.11668 31990 ft 349 kts 44°
2026-04-21 22:13 29.29357 91.13303 31862 ft 334 kts 21°
2026-04-21 22:13 29.31549 91.13958 31634 ft 313 kts 358°
2026-04-21 22:13 29.33559 91.13591 31416 ft 279 kts 334°
2026-04-21 22:14 29.35129 91.12421 30544 ft 272 kts 310°
2026-04-21 22:14 29.36052 91.10592 29483 ft 271 kts 284°
2026-04-21 22:14 29.36107 91.08469 28531 ft 270 kts 259°
2026-04-21 22:14 29.35560 91.06428 27763 ft 268 kts 251°
2026-04-21 22:15 29.34819 91.04477 26968 ft 269 kts 240°
2026-04-21 22:15 29.33470 91.03024 26128 ft 274 kts 213°
2026-04-21 22:15 29.31653 91.02430 25459 ft 272 kts 190°
2026-04-21 22:15 29.29784 91.02756 24755 ft 275 kts 163°
2026-04-21 22:16 29.28240 91.04015 24009 ft 277 kts 134°
2026-04-21 22:16 29.27357 91.05944 23286 ft 275 kts 105°
2026-04-21 22:16 29.27269 91.08117 22613 ft 269 kts 85°
2026-04-21 22:16 29.27355 91.10215 22061 ft 263 kts 85°
2026-04-21 22:17 29.27423 91.12275 21511 ft 257 kts 85°
2026-04-21 22:17 29.27717 91.14246 20915 ft 250 kts 65°
2026-04-21 22:17 29.28843 91.15650 20236 ft 241 kts 28°
2026-04-21 22:17 29.30452 91.16020 19613 ft 234 kts 355°
2026-04-21 22:18 29.31934 91.15284 19145 ft 241 kts 322°
2026-04-21 22:18 29.32832 91.13649 18891 ft 249 kts 289°
2026-04-21 22:18 29.32809 91.11667 18870 ft 256 kts 261°
2026-04-21 22:18 29.32270 91.09713 18873 ft 258 kts 253°
2026-04-21 22:19 29.31762 91.07755 18853 ft 257 kts 257°
2026-04-21 22:19 29.31340 91.05754 18563 ft 256 kts 259°
2026-04-21 22:19 29.30928 91.03766 18202 ft 255 kts 258°
2026-04-21 22:19 29.30523 91.01804 17746 ft 254 kts 260°
2026-04-21 22:20 29.30277 90.99800 17114 ft 256 kts 266°
2026-04-21 22:20 29.30173 90.97758 16209 ft 262 kts 269°
2026-04-21 22:20 29.30143 90.95691 15336 ft 265 kts 272°
2026-04-21 22:20 29.30181 90.93613 14539 ft 264 kts 271°
2026-04-21 22:21 29.30227 90.91470 14726 ft 270 kts 274°
2026-04-21 22:21 29.30362 90.89239 15342 ft 298 kts 275°
2026-04-21 22:21 29.30513 90.86770 15952 ft 327 kts 275°
2026-04-21 22:21 29.30675 90.84084 16556 ft 350 kts 275°
2026-04-21 22:22 29.30831 90.81420 17132 ft 313 kts 275°
2026-04-21 22:22 29.30956 90.79087 17698 ft 273 kts 275°
2026-04-21 22:22 29.31058 90.77030 18274 ft 256 kts 275°
2026-04-21 22:22 29.31004 90.75013 18852 ft 257 kts 256°
2026-04-21 22:23 29.30074 90.73258 19311 ft 264 kts 222°
2026-04-21 22:23 29.28424 90.72356 19445 ft 261 kts 191°
2026-04-21 22:23 29.26634 90.72455 19204 ft 261 kts 162°
2026-04-21 22:23 29.25085 90.73485 18922 ft 260 kts 133°
2026-04-21 22:24 29.24122 90.75236 18916 ft 260 kts 105°
2026-04-21 22:24 29.23916 90.77277 18912 ft 259 kts 88°
2026-04-21 22:24 29.23939 90.79359 18900 ft 259 kts 88°
2026-04-21 22:24 29.23956 90.81437 18898 ft 260 kts 88°
2026-04-21 22:25 29.23963 90.83511 18898 ft 260 kts 88°
2026-04-21 22:25 29.23959 90.85579 18894 ft 260 kts 88°
2026-04-21 22:25 29.23949 90.87643 18893 ft 260 kts 89°
2026-04-21 22:25 29.23933 90.89732 18890 ft 260 kts 88°
2026-04-21 22:26 29.23916 90.91786 18886 ft 260 kts 89°
2026-04-21 22:26 29.23896 90.93879 18886 ft 260 kts 89°
2026-04-21 22:26 29.23877 90.95951 18878 ft 260 kts 89°
2026-04-21 22:26 29.23856 90.98018 18868 ft 259 kts 89°
2026-04-21 22:27 29.23835 91.00085 18862 ft 259 kts 88°
2026-04-21 22:27 29.23814 91.02142 18850 ft 259 kts 89°
2026-04-21 22:27 29.23793 91.04193 18844 ft 259 kts 89°
2026-04-21 22:27 29.23771 91.06254 18870 ft 258 kts 88°
2026-04-21 22:28 29.23749 91.08328 19012 ft 259 kts 88°
2026-04-21 22:28 29.23726 91.10395 18929 ft 259 kts 88°
2026-04-21 22:28 29.23703 91.12446 18874 ft 259 kts 89°
2026-04-21 22:28 29.23680 91.14503 18847 ft 253 kts 88°
2026-04-21 22:29 29.23655 91.16456 18812 ft 231 kts 89°
2026-04-21 22:29 29.23629 91.18211 18789 ft 209 kts 88°
2026-04-21 22:29 29.23607 91.19790 18780 ft 192 kts 88°
2026-04-21 22:29 29.23589 91.21310 18804 ft 190 kts 88°
2026-04-21 22:30 29.23572 91.22835 18821 ft 190 kts 88°
2026-04-21 22:30 29.23554 91.24345 18830 ft 190 kts 88°
2026-04-21 22:30 29.23537 91.25857 18830 ft 190 kts 88°
2026-04-21 22:30 29.23520 91.27374 18830 ft 189 kts 88°
2026-04-21 22:31 29.23501 91.28879 18829 ft 189 kts 88°
2026-04-21 22:31 29.23481 91.30393 18833 ft 189 kts 88°
2026-04-21 22:31 29.23462 91.31905 18835 ft 189 kts 88°
2026-04-21 22:31 29.23444 91.33407 18840 ft 189 kts 88°
2026-04-21 22:32 29.23426 91.34933 18844 ft 189 kts 88°
2026-04-21 22:32 29.23406 91.36445 18845 ft 189 kts 88°
2026-04-21 22:32 29.23407 91.37949 18846 ft 189 kts 84°
2026-04-21 22:32 29.23588 91.39429 18846 ft 187 kts 75°
2026-04-21 22:33 29.23984 91.40841 18843 ft 186 kts 64°
2026-04-21 22:33 29.24592 91.42152 18873 ft 188 kts 54°
2026-04-21 22:33 29.25402 91.43337 19230 ft 190 kts 44°
2026-04-21 22:33 29.26376 91.44351 19477 ft 186 kts 34°
2026-04-21 22:34 29.27468 91.45142 19498 ft 183 kts 25°
2026-04-21 22:34 29.28635 91.45732 19514 ft 182 kts 20°
2026-04-21 22:34 29.29806 91.46255 19513 ft 180 kts 11°
2026-04-21 22:34 29.31000 91.46021 19490 ft 177 kts 325°
2026-04-21 22:35 29.31734 91.44907 19509 ft 182 kts 292°
2026-04-21 22:35 29.31787 91.43363 19528 ft 212 kts 263°
2026-04-21 22:35 29.31465 91.41570 19557 ft 242 kts 260°
2026-04-21 22:35 29.31046 91.39639 19473 ft 251 kts 258°
2026-04-21 22:36 29.30747 91.35661 19494 ft 252 kts 271°
2026-04-21 22:36 29.30770 91.33659 19448 ft 252 kts 272°
2026-04-21 22:36 29.30788 91.31645 19280 ft 251 kts 272°
2026-04-21 22:37 29.30787 91.29642 18970 ft 251 kts 271°
2026-04-21 22:37 29.30769 91.27628 18580 ft 251 kts 271°
2026-04-21 22:37 29.30740 91.25651 18167 ft 246 kts 271°
2026-04-21 22:37 29.30704 91.23760 17747 ft 232 kts 270°
2026-04-21 22:38 29.30669 91.21955 17346 ft 220 kts 270°
2026-04-21 22:38 29.30635 91.20245 16969 ft 211 kts 270°
2026-04-21 22:38 29.30603 91.18604 16607 ft 202 kts 271°
2026-04-21 22:38 29.30574 91.17014 16255 ft 194 kts 270°
2026-04-21 22:39 29.30545 91.15494 15916 ft 187 kts 271°
2026-04-21 22:39 29.30519 91.14042 15595 ft 181 kts 270°
2026-04-21 22:39 29.30493 91.12614 15291 ft 180 kts 271°
2026-04-21 22:39 29.30467 91.11156 14985 ft 180 kts 270°
2026-04-21 22:40 29.30442 91.09725 14682 ft 180 kts 270°
2026-04-21 22:40 29.30417 91.08278 14376 ft 180 kts 270°
2026-04-21 22:40 29.30393 91.06851 14092 ft 179 kts 270°
2026-04-21 22:40 29.30370 91.05411 13868 ft 179 kts 270°
2026-04-21 22:41 29.30346 91.03992 13645 ft 179 kts 270°
2026-04-21 22:41 29.30323 91.02565 13423 ft 179 kts 270°
2026-04-21 22:41 29.30301 91.01150 13200 ft 178 kts 270°
2026-04-21 22:41 29.30278 90.99732 12974 ft 177 kts 270°
2026-04-21 22:42 29.30257 90.98333 12754 ft 176 kts 270°
2026-04-21 22:42 29.30234 90.96912 12532 ft 177 kts 270°
2026-04-21 22:42 29.30213 90.95496 12309 ft 177 kts 270°
2026-04-21 22:42 29.30199 90.94102 12174 ft 176 kts 271°
2026-04-21 22:43 29.30174 90.92674 11926 ft 177 kts 271°
2026-04-21 22:43 29.30154 90.91274 11898 ft 177 kts 269°
2026-04-21 22:43 29.30123 90.89926 11870 ft 157 kts 272°
2026-04-21 22:43 29.30108 90.88947 11872 ft 57 kts 272°
2026-04-21 22:44 29.30018 90.88821 11873 ft 13 kts 184°
2026-04-21 22:44 29.29942 90.88823 11874 ft 10 kts 215°
2026-04-21 22:44 29.29887 90.88753 11874 ft 12 kts 230°
2026-04-21 22:44 29.29811 90.88693 11874 ft 13 kts 200°
2026-04-21 22:45 29.29716 90.88680 11875 ft 14 kts 177°
2026-04-21 22:45 29.29617 90.88692 11876 ft 14 kts 167°
2026-04-21 22:45 29.29541 90.88760 11876 ft 14 kts 122°
2026-04-21 22:45 29.29518 90.88873 11876 ft 14 kts 101°
2026-04-21 22:46 29.29507 90.88990 11876 ft 15 kts 92°
2026-04-21 22:46 29.29509 90.89113 11876 ft 15 kts 87°
2026-04-21 22:46 29.29510 90.89246 11875 ft 17 kts 90°
2026-04-21 22:46 29.29465 90.89321 11874 ft 11 kts 174°
2026-04-21 22:47 29.29431 90.89320 11875 ft 0 kts 167°
2026-04-21 22:47 29.29429 90.89321 11875 ft 0 kts 157°
2026-04-21 22:47 29.29419 90.89325 11876 ft 2 kts 177°
2026-04-21 22:47 29.29406 90.89325 11876 ft 0 kts 178°
2026-04-21 22:48 29.29405 90.89325 11876 ft 0 kts 178°